Weather History for Trinity Center, CA

Change the Weather History Date:

Wednesday, November 28, 2012

  Actual Average (KMHS) Record (KMHS)
Temperature  
Mean Temperature 42 °F 37 °F  
Max Temperature 48 °F 47 °F 64 °F (1959)
Min Temperature 37 °F 28 °F 16 °F (1952)
Degree Days  
Heating Degree Days 22 28  
Month to date heating degree days 677  
Since 1 July heating degree days 1341  
Cooling Degree Days 0 0  
Month to date cooling degree days 0  
Year to date cooling degree days 288  
Moisture  
Dew Point 43 °F    
Average Humidity 94    
Maximum Humidity 100    
Minimum Humidity 82    
Precipitation  
Precipitation 0.54 in 0.20 in 1.69 in (1982)
Month to date precipitation 4.66  
Year to date precipitation 34.94  
Sea Level Pressure  
Sea Level Pressure 29.94 in    
Wind  
Wind Speed 2 mph ()    
Max Wind Speed 13 mph    
Max Gust Speed 21 mph    
Visibility 7.1 miles    
Events      
T = Trace of Precipitation, MM = Missing Value Source: Averaged Metar Reports

Daily Weather History Graph

Daily Weather History Graph

Search for Another Location

Airport:

Trip Planner

Search our weather history database for the weather conditions in past years. The results will help you decide how hot, cold, wet, or windy it might be!

Date:

Astronomy

Nov. 28, 2012 Rise Set
Actual Time 7:13 AM PST 4:44 PM PST
Civil Twilight 6:43 AM PST 5:14 PM PST
Nautical Twilight 6:09 AM PST 5:48 PM PST
Astronomical Twilight 5:36 AM PST 6:21 PM PST
Moon 5:03 PM PST (11/28) 7:15 AM PST (11/28)
Length of Visible Light 10h 31m
Length of Day
9h 30m
Full, 100% of the Moon is Illuminated
Nov 28
Full
Dec 6
Last Quarter
Dec 13
New
Dec 19
First Quarter
Dec 28
Full

Hourly Weather History & Observations

Time (PST) Temp. Windchill Dew Point Humidity Pressure Visibility Wind Dir Wind Speed Gust Speed Precip Events Conditions
12:10 AM 37.4 °F - 37.4 °F 100% 30.07 in 5.0 mi Calm Calm - N/A   Mostly Cloudy
12:30 AM 39.2 °F - 37.4 °F 93% 30.06 in 5.0 mi Calm Calm - N/A   Mostly Cloudy
12:50 AM 39.2 °F - 37.4 °F 93% 30.05 in 6.0 mi Calm Calm - N/A   Overcast
1:10 AM 39.2 °F - 37.4 °F 93% 30.04 in 6.0 mi Calm Calm - N/A   Overcast
1:30 AM 39.2 °F - 39.2 °F 100% 30.02 in 5.0 mi Calm Calm - N/A   Overcast
1:50 AM 39.2 °F - 39.2 °F 100% 30.01 in 8.0 mi Calm Calm - N/A   Overcast
2:10 AM 39.2 °F 37.0 °F 39.2 °F 100% 30.01 in 7.0 mi WNW 3.5 mph - N/A   Overcast
2:30 AM 39.2 °F 37.0 °F 39.2 °F 100% 29.99 in 9.0 mi West 3.5 mph - N/A   Overcast
2:50 AM 39.2 °F - 39.2 °F 100% 29.98 in 10.0 mi Calm Calm - N/A   Overcast
3:10 AM 41.0 °F - 39.2 °F 93% 29.97 in 8.0 mi Calm Calm - N/A   Overcast
3:30 AM 41.0 °F - 39.2 °F 93% 29.97 in 10.0 mi Calm Calm - N/A   Overcast
3:50 AM 41.0 °F - 39.2 °F 93% 29.96 in 7.0 mi Calm Calm - N/A   Overcast
4:10 AM 41.0 °F - 41.0 °F 100% 29.95 in 8.0 mi Calm Calm - N/A   Overcast
4:30 AM 41.0 °F - 41.0 °F 100% 29.95 in 7.0 mi Calm Calm - N/A   Overcast
4:50 AM 41.0 °F - 41.0 °F 100% 29.95 in 10.0 mi Calm Calm - N/A   Overcast
5:10 AM 41.0 °F - 41.0 °F 100% 29.93 in 10.0 mi Calm Calm - N/A   Overcast
5:30 AM 42.8 °F 41.1 °F 41.0 °F 93% 29.91 in 9.0 mi SSW 3.5 mph - N/A   Overcast
5:50 AM 42.8 °F - 41.0 °F 93% 29.90 in 10.0 mi Calm Calm - N/A   Overcast
6:10 AM 44.6 °F 43.1 °F 41.0 °F 87% 29.90 in 10.0 mi SSW 3.5 mph - N/A   Overcast
6:30 AM 44.6 °F - 42.8 °F 93% 29.91 in 9.0 mi Calm Calm - N/A   Overcast
7:30 AM 46.4 °F 41.9 °F 42.8 °F 87% 29.90 in 8.0 mi South 9.2 mph - 0.01 in   Overcast
7:50 AM 46.4 °F - 44.6 °F 93% 29.89 in 5.0 mi Calm Calm - 0.02 in   Overcast
8:10 AM 44.6 °F - 44.6 °F 100% 29.89 in 4.0 mi Calm Calm - 0.02 in   Overcast
8:30 AM 44.6 °F 43.1 °F 44.6 °F 100% 29.89 in 2.5 mi West 3.5 mph - 0.07 in   Overcast
8:50 AM 44.6 °F 43.1 °F 44.6 °F 100% 29.89 in 3.0 mi WNW 3.5 mph - 0.11 in   Overcast
9:10 AM 44.6 °F - 44.6 °F 100% 29.88 in 5.0 mi Calm Calm - 0.01 in   Overcast
9:30 AM 44.6 °F 43.1 °F 44.6 °F 100% 29.88 in 3.0 mi North 3.5 mph - 0.04 in   Overcast
9:50 AM 44.6 °F 43.1 °F 44.6 °F 100% 29.88 in 3.0 mi NNW 3.5 mph - 0.07 in   Overcast
10:10 AM 44.6 °F - 44.6 °F 100% 29.89 in 3.0 mi Calm Calm - 0.02 in   Overcast
10:30 AM 46.4 °F 45.2 °F 44.6 °F 93% 29.89 in 3.0 mi NW 3.5 mph - 0.06 in   Overcast
10:50 AM 46.4 °F 42.9 °F 44.6 °F 93% 29.89 in 4.0 mi SSW 6.9 mph - 0.08 in   Overcast
11:10 AM 46.4 °F 40.7 °F 42.8 °F 87% 29.90 in 4.0 mi South 12.7 mph 20.7 mph 0.01 in   Overcast
11:30 AM 46.4 °F 42.9 °F 42.8 °F 87% 29.90 in 2.5 mi SSW 6.9 mph - 0.05 in   Overcast
11:50 AM 46.4 °F - 44.6 °F 93% 29.88 in 4.0 mi Calm Calm - 0.10 in   Overcast
12:10 PM 46.4 °F 45.2 °F 44.6 °F 93% 29.87 in 7.0 mi West 3.5 mph - 0.01 in   Overcast
12:30 PM 46.4 °F 44.3 °F 44.6 °F 93% 29.88 in 5.0 mi West 4.6 mph - 0.03 in   Overcast
12:50 PM 46.4 °F - 44.6 °F 93% 29.88 in 8.0 mi Calm Calm - 0.04 in   Overcast
1:10 PM 46.4 °F 43.5 °F 44.6 °F 93% 29.89 in 9.0 mi SW 5.8 mph - N/A   Overcast
1:30 PM 46.4 °F 41.9 °F 44.6 °F 93% 29.89 in 3.0 mi SSW 9.2 mph 17.3 mph 0.01 in   Overcast
1:50 PM 46.4 °F 45.2 °F 44.6 °F 93% 29.89 in 2.0 mi SW 3.5 mph - 0.04 in   Overcast
2:10 PM 46.4 °F 42.9 °F 44.6 °F 93% 29.89 in 2.5 mi SSW 6.9 mph - N/A   Overcast
2:30 PM 46.4 °F 42.9 °F 44.6 °F 93% 29.89 in 4.0 mi SSW 6.9 mph - 0.01 in   Overcast
2:50 PM 46.4 °F 43.5 °F 44.6 °F 93% 29.89 in 7.0 mi SSW 5.8 mph - 0.01 in   Overcast
3:10 PM 46.4 °F 42.9 °F 44.6 °F 93% 29.90 in 10.0 mi SSW 6.9 mph - N/A   Overcast
3:30 PM 46.4 °F 42.9 °F 44.6 °F 93% 29.91 in 10.0 mi SSW 6.9 mph - N/A   Overcast
3:50 PM 46.4 °F 43.5 °F 44.6 °F 93% 29.91 in 3.0 mi SSW 5.8 mph - N/A   Overcast
4:10 PM 46.4 °F 44.3 °F 44.6 °F 93% 29.92 in 10.0 mi South 4.6 mph - N/A   Overcast
4:30 PM 46.4 °F 44.3 °F 44.6 °F 93% 29.92 in 10.0 mi SSW 4.6 mph - N/A   Overcast
4:50 PM 46.4 °F 42.9 °F 44.6 °F 93% 29.92 in 10.0 mi SSW 6.9 mph - N/A   Overcast
5:10 PM 46.4 °F 44.3 °F 44.6 °F 93% 29.94 in 7.0 mi SW 4.6 mph 16.1 mph 0.01 in   Overcast
5:30 PM 46.4 °F 43.5 °F 44.6 °F 93% 29.96 in 3.0 mi SSW 5.8 mph - 0.03 in   Overcast
5:50 PM 46.4 °F 42.4 °F 44.6 °F 93% 29.96 in 10.0 mi South 8.1 mph - 0.04 in   Mostly Cloudy
6:10 PM 46.4 °F 43.5 °F 44.6 °F 93% 29.96 in 10.0 mi SW 5.8 mph - N/A   Overcast
6:30 PM 46.4 °F 45.2 °F 44.6 °F 93% 29.97 in 10.0 mi SW 3.5 mph - N/A   Mostly Cloudy
6:50 PM 46.4 °F 45.2 °F 44.6 °F 93% 29.97 in 10.0 mi SW 3.5 mph - N/A   Overcast
7:10 PM 46.4 °F 44.3 °F 44.6 °F 93% 29.97 in 7.0 mi SW 4.6 mph - N/A   Overcast
7:30 PM 46.4 °F - 44.6 °F 93% 29.98 in 10.0 mi Calm Calm - N/A   Overcast
7:50 PM 46.4 °F - 44.6 °F 93% 29.98 in 9.0 mi Calm Calm - N/A   Overcast
8:10 PM 46.4 °F 45.2 °F 44.6 °F 93% 29.98 in 10.0 mi WSW 3.5 mph - N/A   Overcast
8:30 PM 46.4 °F - 44.6 °F 93% 29.99 in 4.0 mi Calm Calm - 0.02 in   Overcast
8:50 PM 46.4 °F 41.5 °F 44.6 °F 93% 30.00 in 8.0 mi South 10.4 mph - 0.02 in   Overcast
9:10 PM 48.2 °F - 44.6 °F 87% 30.00 in 10.0 mi South 11.5 mph 17.3 mph N/A   Overcast
9:30 PM 48.2 °F - 44.6 °F 87% 30.01 in 10.0 mi South 4.6 mph - N/A   Overcast
10:10 PM 48.2 °F - 42.8 °F 82% 30.02 in 10.0 mi South 9.2 mph - N/A   Overcast
10:30 PM 46.4 °F 44.3 °F 42.8 °F 87% 30.02 in 10.0 mi SSW 4.6 mph - N/A   Mostly Cloudy
10:50 PM 46.4 °F 45.2 °F 42.8 °F 87% 30.02 in 10.0 mi SW 3.5 mph - N/A   Mostly Cloudy
11:10 PM 46.4 °F 44.3 °F 42.8 °F 87% 30.01 in 10.0 mi South 4.6 mph - N/A   Overcast
11:30 PM 46.4 °F 42.9 °F 44.6 °F 93% 30.01 in 10.0 mi SSW 6.9 mph - N/A   Overcast
11:50 PM 48.2 °F - 42.8 °F 82% 30.00 in 5.0 mi SSW 5.8 mph - 0.01 in   Overcast